Blytheville Muni Airport, AR

9:59 PM CDT on August 22, 2017 (GMT -0500)
Blytheville Municipal

Weather History for KHKA - February, 2013

Change the Weather History Date:

Friday, February 15, 2013

  Actual Average Record
Temperature  
Mean Temperature 43 °F -  
Max Temperature 52 °F 50 °F 75 °F (1945)
Min Temperature 32 °F 35 °F 14 °F (1943)
Degree Days  
Heating Degree Days 22    
Moisture  
Dew Point 32 °F    
Average Humidity 68    
Maximum Humidity 82    
Minimum Humidity 44    
Precipitation  
Precipitation 0.00 in - - ()
Sea Level Pressure  
Sea Level Pressure 30.18 in    
Wind  
Wind Speed 9 mph (NNW)    
Max Wind Speed 16 mph    
Max Gust Speed 22 mph    
Visibility 10 miles    
Events      
Averages and records for this station are not official NWS values.
T = Trace of Precipitation, MM = Missing Value Source: NWS Daily Summary

Daily Weather History Graph

Daily Weather History Graph

Search for Another Location

Airport or City:

Trip Planner

Search our weather history database for the weather conditions in past years. The results will help you decide how hot, cold, wet, or windy it might be!

Date:

Astronomy

Feb. 15, 2013 Rise Set
Actual Time 6:46 AM CST 5:41 PM CST
Civil Twilight 6:20 AM CST 6:07 PM CST
Nautical Twilight 5:50 AM CST 6:37 PM CST
Astronomical Twilight 5:20 AM CST 7:07 PM CST
Moon 9:34 AM CST (2/15) 11:28 PM CST (2/15)
Length of Visible Light 11h 47m
Length of Day
10h 54m
Waxing Crescent, 30% of the Moon is Illuminated
Feb 15
Waxing Crescent
Feb 17
First Quarter
Feb 25
Full
Mar 4
Last Quarter
Mar 11
New

Hourly Weather History & Observations

Time (CST) Temp. Windchill Dew Point Humidity Pressure Visibility Wind Dir Wind Speed Gust Speed Precip Events Conditions
12:53 AM 41.0 °F 35.8 °F 35.1 °F 79% 30.08 in 10.0 mi NNW 8.1 mph - N/A   Scattered Clouds
1:53 AM 41.0 °F 36.4 °F 36.0 °F 82% 30.09 in 10.0 mi NNW 6.9 mph - N/A   Overcast
2:53 AM 42.1 °F 37.1 °F 36.0 °F 79% 30.10 in 10.0 mi NNW 8.1 mph - N/A   Overcast
3:53 AM 42.1 °F 37.7 °F 36.0 °F 79% 30.12 in 10.0 mi NNW 6.9 mph - N/A   Overcast
4:53 AM 41.0 °F 35.8 °F 36.0 °F 82% 30.14 in 10.0 mi NW 8.1 mph - N/A   Overcast
5:53 AM 41.0 °F 37.1 °F 36.0 °F 82% 30.15 in 10.0 mi NW 5.8 mph - N/A   Overcast
6:53 AM 43.0 °F 39.5 °F 35.1 °F 74% 30.17 in 10.0 mi NW 5.8 mph - N/A   Overcast
7:53 AM 42.1 °F 37.1 °F 36.0 °F 79% 30.19 in 10.0 mi NW 8.1 mph - N/A   Scattered Clouds
8:53 AM 48.0 °F - 36.0 °F 63% 30.20 in 10.0 mi NNW 9.2 mph - N/A   Overcast
9:53 AM 50.0 °F - 34.0 °F 54% 30.20 in 10.0 mi NNW 15.0 mph - N/A   Clear
10:53 AM 52.0 °F - 34.0 °F 50% 30.21 in 10.0 mi NNW 13.8 mph - N/A   Clear
11:53 AM 50.0 °F - 32.0 °F 50% 30.21 in 10.0 mi NNW 12.7 mph - N/A   Mostly Cloudy
12:53 PM 52.0 °F - 30.9 °F 45% 30.19 in 10.0 mi North 13.8 mph - N/A   Scattered Clouds
1:53 PM 51.1 °F - 30.0 °F 44% 30.19 in 10.0 mi NNW 16.1 mph 21.9 mph N/A   Mostly Cloudy
2:53 PM 48.0 °F - 30.0 °F 50% 30.19 in 10.0 mi North 16.1 mph - N/A   Mostly Cloudy
3:53 PM 46.9 °F - 28.9 °F 50% 30.19 in 10.0 mi North 16.1 mph - N/A   Partly Cloudy
4:53 PM 45.0 °F 38.5 °F 28.0 °F 52% 30.20 in 10.0 mi North 13.8 mph - N/A   Partly Cloudy
5:53 PM 39.0 °F 34.0 °F 30.0 °F 70% 30.21 in 10.0 mi North 6.9 mph - N/A   Clear
6:53 PM 37.9 °F 33.5 °F 30.0 °F 73% 30.22 in 10.0 mi NNE 5.8 mph - N/A   Partly Cloudy
7:53 PM 36.0 °F 32.1 °F 28.9 °F 76% 30.22 in 10.0 mi NE 4.6 mph - N/A   Mostly Cloudy
8:53 PM 35.1 °F 32.2 °F 28.9 °F 78% 30.23 in 10.0 mi North 3.5 mph - N/A   Overcast
9:53 PM 35.1 °F 28.6 °F 28.0 °F 76% 30.24 in 10.0 mi North 8.1 mph - N/A   Overcast
10:53 PM 34.0 °F 27.2 °F 26.1 °F 73% 30.24 in 10.0 mi North 8.1 mph - N/A   Overcast
11:53 PM 32.0 °F 26.4 °F 27.0 °F 82% 30.24 in 10.0 mi North 5.8 mph - N/A   Overcast